Weather History for Dodge City, KS

Change the Weather History Date:

Monday, October 24, 2011

  Actual Average Record
Temperature  
Mean Temperature 65 °F -  
Max Temperature 84 °F 64 °F 89 °F (1902)
Min Temperature 46 °F 40 °F 23 °F (1887)
Growing Degree Days 15 (Base 50)    
Moisture  
Dew Point 36 °F    
Average Humidity 33    
Maximum Humidity 56    
Minimum Humidity 19    
Precipitation  
Precipitation 0.00 in - - ()
Sea Level Pressure  
Sea Level Pressure 29.94 in    
Wind  
Wind Speed 15 mph (South)    
Max Wind Speed 34 mph    
Max Gust Speed 40 mph    
Visibility 10 miles    
Events      
Averages and records for this station are not official NWS values.
T = Trace of Precipitation, MM = Missing Value Source: NWS Daily Summary

Daily Weather History Graph

Daily Weather History Graph

Search for Another Location

Airport:

Trip Planner

Search our weather history database for the weather conditions in past years. The results will help you decide how hot, cold, wet, or windy it might be!

Date:

Astronomy

Oct. 24, 2011 Rise Set
Actual Time 7:56 AM CDT 6:50 PM CDT
Civil Twilight 7:30 AM CDT 7:17 PM CDT
Nautical Twilight 6:59 AM CDT 7:48 PM CDT
Astronomical Twilight 6:28 AM CDT 8:18 PM CDT
Moon 5:19 AM CDT (10/24) 5:15 PM CDT (10/24)
Length of Visible Light 11h 47m
Length of Day
10h 54m
Waning Crescent, 7% of the Moon is Illuminated
Oct 24
Waning Crescent
Oct 26
New
Nov 2
First Quarter
Nov 10
Full
Nov 18
Last Quarter

Hourly Weather History & Observations

Time (CDT) Temp. Dew Point Humidity Pressure Visibility Wind Dir Wind Speed Gust Speed Precip Events Conditions
12:52 AM 55.0 °F 28.9 °F 37% 30.05 in 10.0 mi East 8.1 mph - N/A   Clear
1:52 AM 46.9 °F 32.0 °F 56% 30.06 in 10.0 mi SSW 9.2 mph - N/A   Clear
2:52 AM 46.9 °F 30.9 °F 54% 30.06 in 10.0 mi SSW 10.4 mph - N/A   Clear
3:52 AM 50.0 °F 30.9 °F 48% 30.06 in 10.0 mi South 9.2 mph - N/A   Clear
4:52 AM 54.0 °F 30.9 °F 41% 30.05 in 10.0 mi South 10.4 mph - N/A   Clear
5:52 AM 55.9 °F 30.9 °F 39% 30.04 in 10.0 mi SSE 15.0 mph - N/A   Clear
6:52 AM 53.1 °F 32.0 °F 45% 30.06 in 10.0 mi South 10.4 mph - N/A   Clear
7:52 AM 55.0 °F 34.0 °F 45% 30.06 in 10.0 mi South 12.7 mph - N/A   Clear
8:52 AM 55.0 °F 35.1 °F 47% 30.06 in 10.0 mi South 11.5 mph - N/A   Clear
9:52 AM 63.0 °F 35.1 °F 35% 30.06 in 10.0 mi SSW 15.0 mph 23.0 mph N/A   Clear
10:52 AM 69.1 °F 37.9 °F 32% 30.03 in 10.0 mi SSW 20.7 mph 28.8 mph N/A   Clear
11:52 AM 75.9 °F 39.9 °F 27% 30.00 in 10.0 mi SSW 19.6 mph 28.8 mph N/A   Clear
12:52 PM 81.0 °F 39.9 °F 23% 29.97 in 10.0 mi SSW 21.9 mph 32.2 mph N/A   Clear
1:52 PM 82.9 °F 39.9 °F 22% 29.93 in 9.0 mi SSW 26.5 mph 39.1 mph N/A   Clear
2:52 PM 84.9 °F 37.9 °F 19% 29.88 in 10.0 mi South 28.8 mph 36.8 mph N/A   Clear
3:52 PM 84.0 °F 39.0 °F 20% 29.85 in 10.0 mi South 28.8 mph 40.3 mph N/A   Clear
4:52 PM 84.9 °F 37.9 °F 19% 29.82 in 10.0 mi South 34.5 mph 40.3 mph N/A   Clear
5:52 PM 82.9 °F 39.0 °F 21% 29.81 in 10.0 mi South 25.3 mph 38.0 mph N/A   Clear
6:52 PM 78.1 °F 39.9 °F 25% 29.81 in 10.0 mi South 21.9 mph 29.9 mph N/A   Clear
7:52 PM 73.9 °F 37.9 °F 27% 29.81 in 10.0 mi South 19.6 mph 28.8 mph N/A   Clear
8:52 PM 70.0 °F 39.0 °F 32% 29.82 in 10.0 mi South 18.4 mph - N/A   Clear
9:52 PM 71.1 °F 37.9 °F 30% 29.81 in 10.0 mi South 21.9 mph 31.1 mph N/A   Clear
10:52 PM 70.0 °F 36.0 °F 29% 29.79 in 10.0 mi South 23.0 mph 33.4 mph N/A   Clear
11:52 PM 69.1 °F 35.1 °F 29% 29.76 in 10.0 mi South 23.0 mph 29.9 mph N/A   Clear